Time,TemperatureF,DewpointF,PressureIn,WindDirection,WindDirectionDegrees,WindSpeedMPH,WindSpeedGustMPH,Humidity,HourlyPrecipIn,Conditions,Clouds,dailyrainin,SoftwareType,DateUTC
2013-11-26 04:51:00,30.0,24.0,-100.00,South,175,0.0,4.0,79,-99.99,,,-99.99,,2013-11-26 10:51:00,
2013-11-26 05:23:00,30.0,24.0,-100.00,South,175,0.0,4.0,79,-99.99,,,-99.99,,2013-11-26 11:23:00,
2013-11-26 05:33:00,30.0,24.0,-100.00,South,175,0.0,4.0,79,-99.99,,,-99.99,,2013-11-26 11:33:00,
2013-11-26 05:42:00,30.0,24.0,-100.00,South,175,0.0,4.0,79,-99.99,,,-99.99,,2013-11-26 11:42:00,
2013-11-26 05:50:00,30.0,24.0,-100.00,South,175,3.0,6.0,79,-99.99,,,-99.99,,2013-11-26 11:50:00,
2013-11-26 06:22:00,30.0,24.0,-100.00,South,175,3.0,6.0,79,-99.99,,,-99.99,,2013-11-26 12:22:00,
2013-11-26 06:32:00,30.0,24.0,-100.00,South,175,3.0,6.0,79,-99.99,,,-99.99,,2013-11-26 12:32:00,
2013-11-26 06:42:00,30.0,24.0,-100.00,South,175,3.0,6.0,79,-99.99,,,-99.99,,2013-11-26 12:42:00,
2013-11-26 06:51:00,30.0,24.0,-100.00,SW,220,1.0,5.0,78,-99.99,,,-99.99,,2013-11-26 12:51:00,
2013-11-26 07:22:00,30.0,24.0,-100.00,SW,220,1.0,5.0,78,-99.99,,,-99.99,,2013-11-26 13:22:00,
2013-11-26 07:32:00,30.0,24.0,-100.00,SW,220,1.0,5.0,78,-99.99,,,-99.99,,2013-11-26 13:32:00,
2013-11-26 07:42:00,30.0,24.0,-100.00,SW,220,1.0,5.0,78,-99.99,,,-99.99,,2013-11-26 13:42:00,
2013-11-26 07:50:00,31.0,24.0,-100.00,SW,225,2.0,6.0,76,-99.99,,,-99.99,,2013-11-26 13:50:00,
2013-11-26 08:22:00,31.0,24.0,-100.00,SW,225,2.0,6.0,76,-99.99,,,-99.99,,2013-11-26 14:22:00,
2013-11-26 08:32:00,31.0,24.0,-100.00,SW,225,2.0,6.0,76,-99.99,,,-99.99,,2013-11-26 14:32:00,
2013-11-26 08:42:00,31.0,24.0,-100.00,SW,225,2.0,6.0,76,-99.99,,,-99.99,,2013-11-26 14:42:00,
2013-11-26 08:51:00,32.0,23.0,-100.00,West,265,10.0,16.0,69,-99.99,,,-99.99,,2013-11-26 14:51:00,
2013-11-26 09:22:00,32.0,23.0,-100.00,West,265,10.0,16.0,69,-99.99,,,-99.99,,2013-11-26 15:22:00,
2013-11-26 09:33:00,32.0,23.0,-100.00,West,265,10.0,16.0,69,-99.99,,,-99.99,,2013-11-26 15:33:00,
2013-11-26 09:43:00,32.0,23.0,-100.00,West,265,10.0,16.0,69,-99.99,,,-99.99,,2013-11-26 15:43:00,
2013-11-26 09:51:00,30.0,15.0,-100.00,West,270,9.0,17.0,53,-99.99,,,-99.99,,2013-11-26 15:51:00,
2013-11-26 10:43:00,30.0,15.0,-100.00,West,270,9.0,17.0,53,-99.99,,,-99.99,,2013-11-26 16:43:00,
2013-11-26 10:51:00,31.0,15.0,-100.00,West,270,6.0,12.0,51,-99.99,,,-99.99,,2013-11-26 16:51:00,
2013-11-26 11:22:00,31.0,15.0,-100.00,West,270,6.0,12.0,51,-99.99,,,-99.99,,2013-11-26 17:22:00,
2013-11-26 11:33:00,31.0,15.0,-100.00,West,270,6.0,12.0,51,-99.99,,,-99.99,,2013-11-26 17:33:00,
2013-11-26 11:42:00,31.0,15.0,-100.00,West,270,6.0,12.0,51,-99.99,,,-99.99,,2013-11-26 17:42:00,
2013-11-26 11:50:00,30.0,10.0,-100.00,WNW,285,7.0,12.0,44,-99.99,,,-99.99,,2013-11-26 17:50:00,
2013-11-26 12:42:00,30.0,10.0,-100.00,WNW,285,7.0,12.0,44,-99.99,,,-99.99,,2013-11-26 18:42:00,
2013-11-26 12:50:00,30.0,9.0,-100.00,NW,310,7.0,12.0,41,-99.99,,,-99.99,,2013-11-26 18:50:00,
2013-11-26 13:22:00,30.0,9.0,-100.00,NW,310,7.0,12.0,41,-99.99,,,-99.99,,2013-11-26 19:22:00,
2013-11-26 13:32:00,30.0,9.0,-100.00,NW,310,7.0,12.0,41,-99.99,,,-99.99,,2013-11-26 19:32:00,
2013-11-26 13:42:00,30.0,9.0,-100.00,NW,310,7.0,12.0,41,-99.99,,,-99.99,,2013-11-26 19:42:00,
2013-11-26 13:51:00,32.0,8.0,-100.00,West,280,5.0,12.0,36,-99.99,,,-99.99,,2013-11-26 19:51:00,
2013-11-26 14:22:00,32.0,8.0,-100.00,West,280,5.0,12.0,36,-99.99,,,-99.99,,2013-11-26 20:22:00,
2013-11-26 14:32:00,32.0,8.0,-100.00,West,280,5.0,12.0,36,-99.99,,,-99.99,,2013-11-26 20:32:00,
2013-11-26 14:42:00,32.0,8.0,-100.00,West,280,5.0,12.0,36,-99.99,,,-99.99,,2013-11-26 20:42:00,
2013-11-26 15:51:00,26.0,20.0,-100.00,West,270,5.0,14.0,79,-99.99,,,-99.99,,2013-11-26 21:51:00,
2013-11-26 16:23:00,26.0,20.0,-100.00,West,270,5.0,14.0,79,-99.99,,,-99.99,,2013-11-26 22:23:00,
2013-11-26 16:33:00,26.0,20.0,-100.00,West,270,5.0,14.0,79,-99.99,,,-99.99,,2013-11-26 22:33:00,
2013-11-26 16:43:00,26.0,20.0,-100.00,West,270,5.0,14.0,79,-99.99,,,-99.99,,2013-11-26 22:43:00,
2013-11-26 17:51:00,22.0,10.0,-100.00,West,270,11.0,21.0,60,-99.99,,,-99.99,,2013-11-26 23:51:00,
2013-11-26 18:21:00,22.0,10.0,-100.00,West,270,11.0,21.0,60,-99.99,,,-99.99,,2013-11-27 00:21:00,
2013-11-26 18:32:00,22.0,10.0,-100.00,West,270,11.0,21.0,60,-99.99,,,-99.99,,2013-11-27 00:32:00,
2013-11-26 18:42:00,22.0,10.0,-100.00,West,270,11.0,21.0,60,-99.99,,,-99.99,,2013-11-27 00:42:00,
2013-11-26 18:50:00,19.0,6.0,-100.00,West,280,10.0,22.0,55,-99.99,,,-99.99,,2013-11-27 00:50:00,
2013-11-26 19:21:00,19.0,6.0,-100.00,West,280,10.0,22.0,55,-99.99,,,-99.99,,2013-11-27 01:21:00,
2013-11-26 19:32:00,19.0,6.0,-100.00,West,280,10.0,22.0,55,-99.99,,,-99.99,,2013-11-27 01:32:00,
2013-11-26 19:42:00,19.0,6.0,-100.00,West,280,10.0,22.0,55,-99.99,,,-99.99,,2013-11-27 01:42:00,
2013-11-26 19:50:00,18.0,3.0,-100.00,West,275,12.0,26.0,52,-99.99,,,-99.99,,2013-11-27 01:50:00,
2013-11-26 20:22:00,18.0,3.0,-100.00,West,275,12.0,26.0,52,-99.99,,,-99.99,,2013-11-27 02:22:00,
2013-11-26 20:32:00,18.0,3.0,-100.00,West,275,12.0,26.0,52,-99.99,,,-99.99,,2013-11-27 02:32:00,
2013-11-26 20:42:00,18.0,3.0,-100.00,West,275,12.0,26.0,52,-99.99,,,-99.99,,2013-11-27 02:42:00,
2013-11-26 20:50:00,17.0,2.0,-100.00,West,265,8.0,15.0,51,-99.99,,,-99.99,,2013-11-27 02:50:00,
2013-11-26 21:21:00,17.0,2.0,-100.00,West,265,8.0,15.0,51,-99.99,,,-99.99,,2013-11-27 03:21:00,
2013-11-26 21:34:00,17.0,2.0,-100.00,West,265,8.0,15.0,51,-99.99,,,-99.99,,2013-11-27 03:34:00,
2013-11-26 21:44:00,17.0,2.0,-100.00,West,265,8.0,15.0,51,-99.99,,,-99.99,,2013-11-27 03:44:00,
2013-11-26 21:51:00,15.0,0.0,-100.00,West,280,5.0,12.0,52,-99.99,,,-99.99,,2013-11-27 03:51:00,
2013-11-26 22:23:00,15.0,0.0,-100.00,West,280,5.0,12.0,52,-99.99,,,-99.99,,2013-11-27 04:23:00,
2013-11-26 22:34:00,15.0,0.0,-100.00,West,280,5.0,12.0,52,-99.99,,,-99.99,,2013-11-27 04:34:00,
2013-11-26 22:43:00,15.0,0.0,-100.00,West,280,5.0,12.0,52,-99.99,,,-99.99,,2013-11-27 04:43:00,
2013-11-26 22:50:00,15.0,0.0,-100.00,WNW,295,9.0,16.0,53,-99.99,,,-99.99,,2013-11-27 04:50:00,
2013-11-26 23:22:00,15.0,0.0,-100.00,WNW,295,9.0,16.0,53,-99.99,,,-99.99,,2013-11-27 05:22:00,
2013-11-26 23:33:00,15.0,0.0,-100.00,WNW,295,9.0,16.0,53,-99.99,,,-99.99,,2013-11-27 05:33:00,
2013-11-26 23:42:00,15.0,0.0,-100.00,WNW,295,9.0,16.0,53,-99.99,,,-99.99,,2013-11-27 05:42:00,